Weather in Maspalomas

Spain     27°45′29″N   15°35′58″W
temp.,
°C
wind,
m/s
gust,
m/s
humid.,
%
clouds,
%
prec.,
mm/h
press.,
hPa
HPBL,
m
29 june, wed
wed2901:00+19nne896911 0.0 1021732
04:00+19nne78694 0.0 1020643
07:00+18n68724 0.0 1020529
10:00+20nne67607 0.0 1020900
13:00+22nne56570 0.0 1020693
16:00+23nne57580 0.0 1019643
19:00+22nne67600 0.0 1018578
22:00+20nne78734 0.0 1018566
30 june, thu
thu3001:00+20nne79742 0.0 1019477
04:00+19nne78742 0.0 1017451
07:00+19nne687711 0.0 1017480
10:00+21nne46669 0.0 1018676
13:00+23nne56636 0.0 1018641
16:00+23ne56587 0.0 1017744
19:00+22nne56621 0.0 1016573
22:00+20nne89712 0.0 1017562
1 july, fri
fri101:00+20nne78728 0.0 1018565
04:00+19nne78747 0.0 1017596
07:00+19n67736 0.0 1017531
10:00+21n556520 0.0 1018926
13:00+23nne45607 0.0 1017742
16:00+23ne45589 0.0 1016822
19:00+23nne67605 0.0 1016652
22:00+21nne57702 0.0 1018509
2 july, sat
sat201:00+20nne68733 0.0 1018572
04:00+20nne57761 0.0 1018562
07:00+20n56770 0.1 1018419
10:00+22nne56653 0.0 1019615
13:00+24nne45604 0.0 1020679
16:00+24nne35597 0.0 1019698
19:00+24nne56594 0.0 1019537
22:00+21nne78714 0.0 1020575
3 july, sun
sun301:00+21nne78720 0.0 1021536
04:00+20nne78731 0.0 1019457
07:00+19nne78740 0.0 1019375
10:00+21nne786916 0.0 1020598
13:00+23ne88600 0.0 1020620
16:00+24nne55591 0.0 1019572
19:00+23nne67650 0.0 1019472
22:00+21nne89731 0.0 1020425